New York Downtown Manhattan/w, NY

8:50 PM EDT on September 16, 2019 (GMT -0400)
New York Downtown Manhattan/w

Weather History for KJRB - May, 2019

Change the Weather History Date:

Thursday, May 16, 2019

  Actual Average (WUND) Record (WUND)
Temperature  
Mean Temperature 64 °F -  
Max Temperature 73 °F - - (-1)
Min Temperature 54 °F - - (-1)
Degree Days  
Heating Degree Days 2    
Growing Degree Days 14 (Base 50)    
Moisture  
Dew Point 49 °F    
Average Humidity 59    
Maximum Humidity 90    
Minimum Humidity 33    
Precipitation  
Precipitation 0.07 in - - ()
Sea Level Pressure  
Sea Level Pressure 29.86 in    
Wind  
Wind Speed 4 mph ()    
Max Wind Speed 9 mph    
Max Gust Speed 56 mph    
Visibility 10.0 miles    
Events Rain    
Averages and records for this station are not official NWS values.
T = Trace of Precipitation, MM = Missing Value Source: Averaged Metar Reports

Daily Weather History Graph

Daily Weather History Graph

Search for Another Location

Airport or City:

Astronomy

May. 16, 2019 Rise Set
Actual Time 5:38 AM EDT 8:07 PM EDT
Civil Twilight 5:07 AM EDT 8:38 PM EDT
Nautical Twilight 4:28 AM EDT 9:17 PM EDT
Astronomical Twilight 3:45 AM EDT 10:00 PM EDT
Moon 5:42 PM EDT (5/16) 4:36 AM EDT (5/16)
Length of Visible Light 15h 31m
Length of Day
14h 28m
Waxing Gibbous, 94% of the Moon is Illuminated
May 16
Waxing Gibbous
May 18
Full
May 26
Last Quarter
Jun 3
New
Jun 10
First Quarter

Hourly Weather History & Observations

Time (EDT) Temp. Dew Point Humidity Pressure Visibility Wind Dir Wind Speed Gust Speed Precip Events Conditions
12:56 AM 60.1 °F 50.0 °F 69% 29.85 in 10.0 mi SW 3.5 mph - 0.00 in Rain Light Rain
1:56 AM 57.9 °F 48.9 °F 72% 29.85 in 10.0 mi NE 6.9 mph - 0.02 in Rain Light Rain
2:56 AM 57.0 °F 51.1 °F 81% 29.84 in 10.0 mi Calm Calm - 0.00 in   Overcast
4:56 AM 55.0 °F 51.1 °F 86% 29.85 in 10.0 mi West 3.5 mph - 0.02 in   Overcast
5:56 AM 54.0 °F 51.1 °F 90% 29.86 in 10.0 mi SW 3.5 mph - N/A   Clear
6:56 AM 55.0 °F 51.1 °F 86% 29.88 in 10.0 mi West 3.5 mph - N/A   Overcast
7:56 AM 55.9 °F 51.1 °F 84% 29.90 in 10.0 mi WSW 6.9 mph - N/A   Overcast
8:56 AM 57.9 °F 51.1 °F 78% 29.90 in 10.0 mi WSW 4.6 mph - N/A   Clear
9:56 AM 63.0 °F 50.0 °F 63% 29.89 in 10.0 mi SW 6.9 mph - 0.03 in   Partly Cloudy
10:56 AM 68.0 °F 46.9 °F 47% 29.88 in 10.0 mi West 9.2 mph - N/A   Clear
11:56 AM 70.0 °F 45.0 °F 41% 29.87 in 10.0 mi Variable 6.9 mph - N/A   Scattered Clouds
12:56 PM 70.0 °F 46.0 °F 42% 29.86 in 10.0 mi Calm Calm - N/A   Scattered Clouds
1:56 PM 73.0 °F 42.1 °F 33% 29.85 in 10.0 mi Variable 6.9 mph - N/A   Scattered Clouds
2:56 PM 73.0 °F 42.1 °F 33% 29.83 in 10.0 mi SW 4.6 mph - N/A   Mostly Cloudy
3:56 PM 73.0 °F 46.0 °F 38% 29.83 in 10.0 mi WSW 4.6 mph - N/A   Clear
4:56 PM 70.0 °F 48.9 °F 47% 29.84 in 10.0 mi Variable 3.5 mph - N/A   Mostly Cloudy
5:56 PM 70.0 °F 50.0 °F 49% 29.83 in 9.0 mi West 3.5 mph - N/A   Partly Cloudy
6:15 PM 69.8 °F 50.0 °F 49% 29.84 in 10.0 mi SW 4.6 mph 56.4 mph N/A   Squalls
6:56 PM 68.0 °F 50.0 °F 52% 29.84 in 10.0 mi WSW 4.6 mph - N/A   Clear
7:56 PM 64.9 °F 48.9 °F 56% 29.85 in 10.0 mi WSW 3.5 mph - N/A   Clear
8:56 PM 64.9 °F 50.0 °F 58% 29.87 in 10.0 mi Calm Calm - N/A   Clear
9:56 PM 64.9 °F 48.9 °F 56% 29.88 in 10.0 mi Calm Calm - N/A   Clear
10:56 PM 63.0 °F 48.0 °F 58% 29.89 in 10.0 mi Calm Calm - N/A   Clear
11:56 PM 64.0 °F 46.9 °F 54% 29.89 in 10.0 mi Calm Calm - N/A   Scattered Clouds